,Coso Junction,Coso Junction
,PM10_1HR,PM10_1HR
,UG/M3,UG/M3
Date,Value,Null Code
01-Sep-2021 00:00,34.8,
01-Sep-2021 01:00,33.8,
01-Sep-2021 02:00,31.8,
01-Sep-2021 03:00,30.9,
01-Sep-2021 04:00,33,
01-Sep-2021 05:00,39,
01-Sep-2021 06:00,41.1,
01-Sep-2021 07:00,43.7,
01-Sep-2021 08:00,48,
01-Sep-2021 09:00,46.3,
01-Sep-2021 10:00,45.3,
01-Sep-2021 11:00,43.8,
01-Sep-2021 12:00,39.8,
01-Sep-2021 13:00,41,
01-Sep-2021 14:00,46,
01-Sep-2021 15:00,27.1,
01-Sep-2021 16:00,7.1,
01-Sep-2021 17:00,13.6,
01-Sep-2021 18:00,24.3,
01-Sep-2021 19:00,18.6,
01-Sep-2021 20:00,16.8,
01-Sep-2021 21:00,29.6,
01-Sep-2021 22:00,36.8,
01-Sep-2021 23:00,31,
02-Sep-2021 00:00,24.4,
02-Sep-2021 01:00,24.4,
02-Sep-2021 02:00,24.7,
02-Sep-2021 03:00,22,
02-Sep-2021 04:00,21.9,
02-Sep-2021 05:00,35.6,
02-Sep-2021 06:00,36.9,
02-Sep-2021 07:00,25,
02-Sep-2021 08:00,25.3,
02-Sep-2021 09:00,28,
02-Sep-2021 10:00,28,
02-Sep-2021 11:00,27.3,
02-Sep-2021 12:00,24.5,
02-Sep-2021 13:00,20.4,
02-Sep-2021 14:00,31.1,
02-Sep-2021 15:00,33.2,
02-Sep-2021 16:00,14.7,
02-Sep-2021 17:00,20.9,
02-Sep-2021 18:00,19.9,
02-Sep-2021 19:00,14.8,
02-Sep-2021 20:00,9.4,
02-Sep-2021 21:00,9.7,
02-Sep-2021 22:00,9.7,
02-Sep-2021 23:00,14.4,
03-Sep-2021 00:00,14,
03-Sep-2021 01:00,13.6,
03-Sep-2021 02:00,12,
03-Sep-2021 03:00,10.7,
03-Sep-2021 04:00,71,
03-Sep-2021 05:00,12.3,
03-Sep-2021 06:00,18.3,
03-Sep-2021 07:00,15.8,
03-Sep-2021 08:00,16.2,
03-Sep-2021 09:00,53.8,
03-Sep-2021 10:00,68.8,
03-Sep-2021 11:00,46.7,
03-Sep-2021 12:00,37.8,
03-Sep-2021 13:00,22.6,
03-Sep-2021 14:00,25.5,
03-Sep-2021 15:00,22.6,
03-Sep-2021 16:00,18,
03-Sep-2021 17:00,14.8,
03-Sep-2021 18:00,10,
03-Sep-2021 19:00,11.5,
03-Sep-2021 20:00,15.8,
03-Sep-2021 21:00,23.8,
03-Sep-2021 22:00,20.3,
03-Sep-2021 23:00,20.5,
04-Sep-2021 00:00,17.7,
04-Sep-2021 01:00,18.3,
04-Sep-2021 02:00,18.5,
04-Sep-2021 03:00,17,
04-Sep-2021 04:00,23.1,
04-Sep-2021 05:00,26.2,
04-Sep-2021 06:00,15.5,
04-Sep-2021 07:00,28.9,
04-Sep-2021 08:00,15.6,
04-Sep-2021 09:00,16.7,
04-Sep-2021 10:00,15.4,
04-Sep-2021 11:00,19.4,
04-Sep-2021 12:00,14.8,
04-Sep-2021 13:00,12.8,
04-Sep-2021 14:00,14.2,
04-Sep-2021 15:00,12.5,
04-Sep-2021 16:00,12.2,
04-Sep-2021 17:00,13.7,
04-Sep-2021 18:00,7.7,
04-Sep-2021 19:00,9.1,
04-Sep-2021 20:00,10.8,
04-Sep-2021 21:00,8.9,
04-Sep-2021 22:00,10.1,
04-Sep-2021 23:00,12.1,
05-Sep-2021 00:00,8.6,
05-Sep-2021 01:00,13.6,
05-Sep-2021 02:00,10.6,
05-Sep-2021 03:00,10.7,
05-Sep-2021 04:00,29,
05-Sep-2021 05:00,20.3,
05-Sep-2021 06:00,15.2,
05-Sep-2021 07:00,11.8,
05-Sep-2021 08:00,11.2,
05-Sep-2021 09:00,10.2,
05-Sep-2021 10:00,11.9,
05-Sep-2021 11:00,5.2,
05-Sep-2021 12:00,5.2,
05-Sep-2021 13:00,8.8,
05-Sep-2021 14:00,10.7,
05-Sep-2021 15:00,11.5,
05-Sep-2021 16:00,14.1,
05-Sep-2021 17:00,13.9,
05-Sep-2021 18:00,7.9,
05-Sep-2021 19:00,11.2,
05-Sep-2021 20:00,17.9,
05-Sep-2021 21:00,13.2,
05-Sep-2021 22:00,16.9,
05-Sep-2021 23:00,18.8,
06-Sep-2021 00:00,16.2,
06-Sep-2021 01:00,19.2,
06-Sep-2021 02:00,15.9,
06-Sep-2021 03:00,18.3,
06-Sep-2021 04:00,21.5,
06-Sep-2021 05:00,20.9,
06-Sep-2021 06:00,16.3,
06-Sep-2021 07:00,11.6,
06-Sep-2021 08:00,11,
06-Sep-2021 09:00,19.9,
06-Sep-2021 10:00,14.9,
06-Sep-2021 11:00,20.8,
06-Sep-2021 12:00,16.1,
06-Sep-2021 13:00,9.6,
06-Sep-2021 14:00,6.2,
06-Sep-2021 15:00,16.9,
06-Sep-2021 16:00,14.1,
06-Sep-2021 17:00,12.9,
06-Sep-2021 18:00,12.5,
06-Sep-2021 19:00,17.1,
06-Sep-2021 20:00,14.7,
06-Sep-2021 21:00,13,
06-Sep-2021 22:00,10.1,
06-Sep-2021 23:00,9.5,
07-Sep-2021 00:00,9.5,
07-Sep-2021 01:00,10.9,
07-Sep-2021 02:00,11,
07-Sep-2021 03:00,15.3,
07-Sep-2021 04:00,14.2,
07-Sep-2021 05:00,13.5,
07-Sep-2021 06:00,13,
07-Sep-2021 07:00,18.7,
07-Sep-2021 08:00,20.7,
07-Sep-2021 09:00,17.5,
07-Sep-2021 10:00,17.2,
07-Sep-2021 11:00,15.6,
07-Sep-2021 12:00,9.5,
07-Sep-2021 13:00,11.5,
07-Sep-2021 14:00,13.9,
07-Sep-2021 15:00,11.5,
07-Sep-2021 16:00,18.9,
07-Sep-2021 17:00,28.9,
07-Sep-2021 18:00,9.5,
07-Sep-2021 19:00,16.3,
07-Sep-2021 20:00,10.8,
07-Sep-2021 21:00,16.7,
07-Sep-2021 22:00,16.2,
07-Sep-2021 23:00,17.9,
08-Sep-2021 00:00,17.3,
08-Sep-2021 01:00,17.2,
08-Sep-2021 02:00,16.5,
08-Sep-2021 03:00,21.1,
08-Sep-2021 04:00,19.9,
08-Sep-2021 05:00,18.2,
08-Sep-2021 06:00,13.4,
08-Sep-2021 07:00,19.4,
08-Sep-2021 08:00,17.9,
08-Sep-2021 09:00,22.2,
08-Sep-2021 10:00,20.8,
08-Sep-2021 11:00,16.2,
08-Sep-2021 12:00,11,
08-Sep-2021 13:00,20.3,
08-Sep-2021 14:00,20.7,
08-Sep-2021 15:00,14.6,
08-Sep-2021 16:00,24.2,
08-Sep-2021 17:00,14.4,
08-Sep-2021 18:00,11.4,
08-Sep-2021 19:00,10.7,
08-Sep-2021 20:00,15.2,
08-Sep-2021 21:00,15.2,
08-Sep-2021 22:00,18.1,
08-Sep-2021 23:00,22.1,
09-Sep-2021 00:00,22.8,
09-Sep-2021 01:00,54.1,
09-Sep-2021 02:00,28.7,
09-Sep-2021 03:00,27.7,
09-Sep-2021 04:00,27.9,
09-Sep-2021 05:00,34,
09-Sep-2021 06:00,31.1,
09-Sep-2021 07:00,50.3,
09-Sep-2021 08:00,36.5,
09-Sep-2021 09:00,42.2,
09-Sep-2021 10:00,30,
09-Sep-2021 11:00,21.9,
09-Sep-2021 12:00,26.8,
09-Sep-2021 13:00,19.6,
09-Sep-2021 14:00,29.9,
09-Sep-2021 15:00,417.6,
09-Sep-2021 16:00,46.3,
09-Sep-2021 17:00,39.4,
09-Sep-2021 18:00,9.3,
09-Sep-2021 19:00,13.9,
09-Sep-2021 20:00,9.2,
09-Sep-2021 21:00,8.8,
09-Sep-2021 22:00,7.2,
09-Sep-2021 23:00,11.6,
10-Sep-2021 00:00,5,
10-Sep-2021 01:00,10.3,
10-Sep-2021 02:00,10.8,
10-Sep-2021 03:00,13.5,
10-Sep-2021 04:00,18.9,
10-Sep-2021 05:00,14.4,
10-Sep-2021 06:00,,AX
10-Sep-2021 07:00,,AX
10-Sep-2021 08:00,,AX
10-Sep-2021 09:00,16.7,
10-Sep-2021 10:00,23.2,
10-Sep-2021 11:00,4.8,
10-Sep-2021 12:00,17.7,
10-Sep-2021 13:00,14.2,
10-Sep-2021 14:00,11.4,
10-Sep-2021 15:00,19.8,
10-Sep-2021 16:00,15.2,
10-Sep-2021 17:00,18.5,
10-Sep-2021 18:00,18.8,
10-Sep-2021 19:00,22.8,
10-Sep-2021 20:00,23.4,
10-Sep-2021 21:00,25.7,
10-Sep-2021 22:00,24.6,
10-Sep-2021 23:00,20.8,
11-Sep-2021 00:00,17.6,
11-Sep-2021 01:00,13.8,
11-Sep-2021 02:00,8.5,
11-Sep-2021 03:00,8.1,
11-Sep-2021 04:00,12.2,
11-Sep-2021 05:00,15.4,
11-Sep-2021 06:00,14.3,
11-Sep-2021 07:00,13.5,
11-Sep-2021 08:00,18.2,
11-Sep-2021 09:00,19.5,
11-Sep-2021 10:00,19.5,
11-Sep-2021 11:00,17.1,
11-Sep-2021 12:00,13.6,
11-Sep-2021 13:00,7.9,
11-Sep-2021 14:00,21.9,
11-Sep-2021 15:00,15,
11-Sep-2021 16:00,13.5,
11-Sep-2021 17:00,19.6,
11-Sep-2021 18:00,40.9,
11-Sep-2021 19:00,40.3,
11-Sep-2021 20:00,29.8,
11-Sep-2021 21:00,22.5,
11-Sep-2021 22:00,21.9,
11-Sep-2021 23:00,19.4,
12-Sep-2021 00:00,16.1,
12-Sep-2021 01:00,14.5,
12-Sep-2021 02:00,14.6,
12-Sep-2021 03:00,14.2,
12-Sep-2021 04:00,14.6,
12-Sep-2021 05:00,15.7,
12-Sep-2021 06:00,13.4,
12-Sep-2021 07:00,15.7,
12-Sep-2021 08:00,17.9,
12-Sep-2021 09:00,15.7,
12-Sep-2021 10:00,11,
12-Sep-2021 11:00,11.4,
12-Sep-2021 12:00,15.9,
12-Sep-2021 13:00,9.1,
12-Sep-2021 14:00,7.8,
12-Sep-2021 15:00,9.7,
12-Sep-2021 16:00,10.2,
12-Sep-2021 17:00,15,
12-Sep-2021 18:00,15.9,
12-Sep-2021 19:00,18.2,
12-Sep-2021 20:00,16.7,
12-Sep-2021 21:00,20.9,
12-Sep-2021 22:00,28.1,
12-Sep-2021 23:00,27.5,
13-Sep-2021 00:00,23.2,
13-Sep-2021 01:00,22.3,
13-Sep-2021 02:00,22.8,
13-Sep-2021 03:00,35.3,
13-Sep-2021 04:00,42.2,
13-Sep-2021 05:00,44.3,
13-Sep-2021 06:00,31.3,
13-Sep-2021 07:00,31.3,
13-Sep-2021 08:00,23.8,
13-Sep-2021 09:00,25.1,
13-Sep-2021 10:00,30.9,
13-Sep-2021 11:00,29.2,
13-Sep-2021 12:00,33.9,
13-Sep-2021 13:00,58.7,
13-Sep-2021 14:00,139,
13-Sep-2021 15:00,118.4,
13-Sep-2021 16:00,61.8,
13-Sep-2021 17:00,54.7,
13-Sep-2021 18:00,146.7,
13-Sep-2021 19:00,99.3,
13-Sep-2021 20:00,94.6,
13-Sep-2021 21:00,124.9,
13-Sep-2021 22:00,114.4,
13-Sep-2021 23:00,113.9,
14-Sep-2021 00:00,111.7,
14-Sep-2021 01:00,100.6,
14-Sep-2021 02:00,101.1,
14-Sep-2021 03:00,114.8,
14-Sep-2021 04:00,112,
14-Sep-2021 05:00,104.9,
14-Sep-2021 06:00,96.8,
14-Sep-2021 07:00,66.1,
14-Sep-2021 08:00,41,
14-Sep-2021 09:00,25.8,
14-Sep-2021 10:00,25.8,
14-Sep-2021 11:00,25.8,
14-Sep-2021 12:00,47.4,
14-Sep-2021 13:00,45.3,
14-Sep-2021 14:00,49.3,
14-Sep-2021 15:00,51.9,
14-Sep-2021 16:00,42.9,
14-Sep-2021 17:00,32.7,
14-Sep-2021 18:00,35.1,
14-Sep-2021 19:00,35,
14-Sep-2021 20:00,36.6,
14-Sep-2021 21:00,40.4,
14-Sep-2021 22:00,45.4,
14-Sep-2021 23:00,43.3,
15-Sep-2021 00:00,51.9,
15-Sep-2021 01:00,52,
15-Sep-2021 02:00,46.7,
15-Sep-2021 03:00,43.7,
15-Sep-2021 04:00,42.4,
15-Sep-2021 05:00,42.7,
15-Sep-2021 06:00,42.7,
15-Sep-2021 07:00,,BL
15-Sep-2021 08:00,,BL
15-Sep-2021 09:00,,BL
15-Sep-2021 10:00,,BL
15-Sep-2021 11:00,33.4,
15-Sep-2021 12:00,23.1,
15-Sep-2021 13:00,17.6,
15-Sep-2021 14:00,20.3,
15-Sep-2021 15:00,28.1,
15-Sep-2021 16:00,25.3,
15-Sep-2021 17:00,27.4,
15-Sep-2021 18:00,80.3,
15-Sep-2021 19:00,73.2,
15-Sep-2021 20:00,68.7,
15-Sep-2021 21:00,99,
15-Sep-2021 22:00,82.4,
15-Sep-2021 23:00,62.1,
16-Sep-2021 00:00,64.2,
16-Sep-2021 01:00,50.6,
16-Sep-2021 02:00,50,
16-Sep-2021 03:00,52.5,
16-Sep-2021 04:00,54.2,
16-Sep-2021 05:00,54.6,
16-Sep-2021 06:00,128.1,
16-Sep-2021 07:00,128,
16-Sep-2021 08:00,52.2,
16-Sep-2021 09:00,64.9,
16-Sep-2021 10:00,75.4,
16-Sep-2021 11:00,105.9,
16-Sep-2021 12:00,123.7,
16-Sep-2021 13:00,119.9,
16-Sep-2021 14:00,173.9,
16-Sep-2021 15:00,162,
16-Sep-2021 16:00,113.3,
16-Sep-2021 17:00,89,
16-Sep-2021 18:00,98.3,
16-Sep-2021 19:00,90.2,
16-Sep-2021 20:00,43.8,
16-Sep-2021 21:00,43,
16-Sep-2021 22:00,40.3,
16-Sep-2021 23:00,39.4,
17-Sep-2021 00:00,43,
17-Sep-2021 01:00,49.6,
17-Sep-2021 02:00,78.2,
17-Sep-2021 03:00,61.2,
17-Sep-2021 04:00,81.7,
17-Sep-2021 05:00,73.5,
17-Sep-2021 06:00,103,
17-Sep-2021 07:00,99.2,
17-Sep-2021 08:00,65.7,
17-Sep-2021 09:00,43.5,
17-Sep-2021 10:00,38.4,
17-Sep-2021 11:00,23.6,
17-Sep-2021 12:00,19,
17-Sep-2021 13:00,24.1,
17-Sep-2021 14:00,25.3,
17-Sep-2021 15:00,14.2,
17-Sep-2021 16:00,18.3,
17-Sep-2021 17:00,25.3,
17-Sep-2021 18:00,16.7,
17-Sep-2021 19:00,15.6,
17-Sep-2021 20:00,14.9,
17-Sep-2021 21:00,19.7,
17-Sep-2021 22:00,22.1,
17-Sep-2021 23:00,17.7,
18-Sep-2021 00:00,17.5,
18-Sep-2021 01:00,16,
18-Sep-2021 02:00,17.6,
18-Sep-2021 03:00,16.9,
18-Sep-2021 04:00,29.7,
18-Sep-2021 05:00,20.5,
18-Sep-2021 06:00,10.3,
18-Sep-2021 07:00,9.1,
18-Sep-2021 08:00,7.4,
18-Sep-2021 09:00,8.7,
18-Sep-2021 10:00,10.6,
18-Sep-2021 11:00,12,
18-Sep-2021 12:00,12.6,
18-Sep-2021 13:00,27.1,
18-Sep-2021 14:00,606,
18-Sep-2021 15:00,892.5,
18-Sep-2021 16:00,777.6,
18-Sep-2021 17:00,304.9,
18-Sep-2021 18:00,21.6,
18-Sep-2021 19:00,171.8,
18-Sep-2021 20:00,171.8,
18-Sep-2021 21:00,250.6,
18-Sep-2021 22:00,152.6,
18-Sep-2021 23:00,157.1,
19-Sep-2021 00:00,165.3,
19-Sep-2021 01:00,197.2,
19-Sep-2021 02:00,184.1,
19-Sep-2021 03:00,180.3,
19-Sep-2021 04:00,179,
19-Sep-2021 05:00,165.3,
19-Sep-2021 06:00,172.7,
19-Sep-2021 07:00,182.4,
19-Sep-2021 08:00,178.8,
19-Sep-2021 09:00,188.9,
19-Sep-2021 10:00,196.1,
19-Sep-2021 11:00,204.5,
19-Sep-2021 12:00,203.1,
19-Sep-2021 13:00,182.9,
19-Sep-2021 14:00,152.9,
19-Sep-2021 15:00,148,
19-Sep-2021 16:00,149.7,
19-Sep-2021 17:00,149.4,
19-Sep-2021 18:00,149.8,
19-Sep-2021 19:00,148.8,
19-Sep-2021 20:00,134.7,
19-Sep-2021 21:00,134.7,
19-Sep-2021 22:00,125.3,
19-Sep-2021 23:00,105,
20-Sep-2021 00:00,60.4,
20-Sep-2021 01:00,42.8,
20-Sep-2021 02:00,43.8,
20-Sep-2021 03:00,54.5,
20-Sep-2021 04:00,42.1,
20-Sep-2021 05:00,36.7,
20-Sep-2021 06:00,36.3,
20-Sep-2021 07:00,44.7,
20-Sep-2021 08:00,43.4,
20-Sep-2021 09:00,30.3,
20-Sep-2021 10:00,30.3,
20-Sep-2021 11:00,28.3,
20-Sep-2021 12:00,27.9,
20-Sep-2021 13:00,35.3,
20-Sep-2021 14:00,43.4,
20-Sep-2021 15:00,44.6,
20-Sep-2021 16:00,39.4,
20-Sep-2021 17:00,49.1,
20-Sep-2021 18:00,55,
20-Sep-2021 19:00,55.7,
20-Sep-2021 20:00,50.5,
20-Sep-2021 21:00,51.6,
20-Sep-2021 22:00,50.4,
20-Sep-2021 23:00,46,
21-Sep-2021 00:00,45.5,
21-Sep-2021 01:00,26.2,
21-Sep-2021 02:00,21.9,
21-Sep-2021 03:00,16.5,
21-Sep-2021 04:00,11.5,
21-Sep-2021 05:00,7.7,
21-Sep-2021 06:00,5.9,
21-Sep-2021 07:00,9.6,
21-Sep-2021 08:00,10.3,
21-Sep-2021 09:00,6.8,
21-Sep-2021 10:00,2.9,
21-Sep-2021 11:00,14.9,
21-Sep-2021 12:00,15.1,
21-Sep-2021 13:00,7.5,
21-Sep-2021 14:00,10.5,
21-Sep-2021 15:00,7.9,
21-Sep-2021 16:00,11.1,
21-Sep-2021 17:00,8.8,
21-Sep-2021 18:00,7.3,
21-Sep-2021 19:00,9.7,
21-Sep-2021 20:00,9.1,
21-Sep-2021 21:00,13.4,
21-Sep-2021 22:00,10.8,
21-Sep-2021 23:00,12.6,
22-Sep-2021 00:00,16.7,
22-Sep-2021 01:00,14.8,
22-Sep-2021 02:00,19.2,
22-Sep-2021 03:00,33.1,
22-Sep-2021 04:00,41.6,
22-Sep-2021 05:00,38.8,
22-Sep-2021 06:00,26.8,
22-Sep-2021 07:00,22.4,
22-Sep-2021 08:00,22,
22-Sep-2021 09:00,21.1,
22-Sep-2021 10:00,21.1,
22-Sep-2021 11:00,57.5,
22-Sep-2021 12:00,62.3,
22-Sep-2021 13:00,111.2,
22-Sep-2021 14:00,282.4,
22-Sep-2021 15:00,384.3,
22-Sep-2021 16:00,408.6,
22-Sep-2021 17:00,166.4,
22-Sep-2021 18:00,114.9,
22-Sep-2021 19:00,145.6,
22-Sep-2021 20:00,128.8,
22-Sep-2021 21:00,140.5,
22-Sep-2021 22:00,142.9,
22-Sep-2021 23:00,148.6,
23-Sep-2021 00:00,172.3,
23-Sep-2021 01:00,114.4,
23-Sep-2021 02:00,100,
23-Sep-2021 03:00,95.6,
23-Sep-2021 04:00,80.9,
23-Sep-2021 05:00,64.8,
23-Sep-2021 06:00,43.6,
23-Sep-2021 07:00,37.3,
23-Sep-2021 08:00,,BA
23-Sep-2021 09:00,,BA
23-Sep-2021 10:00,,BA
23-Sep-2021 11:00,25.1,
23-Sep-2021 12:00,29.5,
23-Sep-2021 13:00,38.9,
23-Sep-2021 14:00,38,
23-Sep-2021 15:00,73.4,
23-Sep-2021 16:00,74.8,
23-Sep-2021 17:00,73.4,
23-Sep-2021 18:00,72,
23-Sep-2021 19:00,67.4,
23-Sep-2021 20:00,66.5,
23-Sep-2021 21:00,65.3,
23-Sep-2021 22:00,62.5,
23-Sep-2021 23:00,42.4,
24-Sep-2021 00:00,26,
24-Sep-2021 01:00,23.1,
24-Sep-2021 02:00,21.6,
24-Sep-2021 03:00,19.9,
24-Sep-2021 04:00,20.3,
24-Sep-2021 05:00,21.4,
24-Sep-2021 06:00,19.9,
24-Sep-2021 07:00,29.2,
24-Sep-2021 08:00,28.3,
24-Sep-2021 09:00,24.2,
24-Sep-2021 10:00,22.4,
24-Sep-2021 11:00,19.6,
24-Sep-2021 12:00,19.8,
24-Sep-2021 13:00,20.6,
24-Sep-2021 14:00,36.4,
24-Sep-2021 15:00,32.9,
24-Sep-2021 16:00,31.7,
24-Sep-2021 17:00,26.2,
24-Sep-2021 18:00,25.2,
24-Sep-2021 19:00,25.4,
24-Sep-2021 20:00,25.4,
24-Sep-2021 21:00,27.4,
24-Sep-2021 22:00,31.2,
24-Sep-2021 23:00,42.9,
25-Sep-2021 00:00,69,
25-Sep-2021 01:00,80.7,
25-Sep-2021 02:00,69.8,
25-Sep-2021 03:00,68.7,
25-Sep-2021 04:00,66.5,
25-Sep-2021 05:00,62.2,
25-Sep-2021 06:00,50.7,
25-Sep-2021 07:00,57.6,
25-Sep-2021 08:00,50,
25-Sep-2021 09:00,50.1,
25-Sep-2021 10:00,47.4,
25-Sep-2021 11:00,47.4,
25-Sep-2021 12:00,44.7,
25-Sep-2021 13:00,38.3,
25-Sep-2021 14:00,38.8,
25-Sep-2021 15:00,37,
25-Sep-2021 16:00,33.1,
25-Sep-2021 17:00,27.2,
25-Sep-2021 18:00,22,
25-Sep-2021 19:00,29.6,
25-Sep-2021 20:00,48.1,
25-Sep-2021 21:00,71,
25-Sep-2021 22:00,50.6,
25-Sep-2021 23:00,28,
26-Sep-2021 00:00,30.1,
26-Sep-2021 01:00,54.4,
26-Sep-2021 02:00,59.4,
26-Sep-2021 03:00,48.1,
26-Sep-2021 04:00,68.3,
26-Sep-2021 05:00,80.5,
26-Sep-2021 06:00,82.6,
26-Sep-2021 07:00,77.1,
26-Sep-2021 08:00,61.2,
26-Sep-2021 09:00,68.1,
26-Sep-2021 10:00,78,
26-Sep-2021 11:00,108.5,
26-Sep-2021 12:00,157.2,
26-Sep-2021 13:00,170.7,
26-Sep-2021 14:00,174.1,
26-Sep-2021 15:00,145.7,
26-Sep-2021 16:00,138.3,
26-Sep-2021 17:00,159.8,
26-Sep-2021 18:00,145.5,
26-Sep-2021 19:00,168.6,
26-Sep-2021 20:00,202.4,
26-Sep-2021 21:00,193.5,
26-Sep-2021 22:00,217.6,
26-Sep-2021 23:00,217.9,
27-Sep-2021 00:00,238.5,
27-Sep-2021 01:00,234.7,
27-Sep-2021 02:00,254.9,
27-Sep-2021 03:00,283.2,
27-Sep-2021 04:00,280.7,
27-Sep-2021 05:00,258.8,
27-Sep-2021 06:00,220.7,
27-Sep-2021 07:00,211.4,
27-Sep-2021 08:00,244.8,
27-Sep-2021 09:00,247,
27-Sep-2021 10:00,235.6,
27-Sep-2021 11:00,246,
27-Sep-2021 12:00,265.3,
27-Sep-2021 13:00,286.5,
27-Sep-2021 14:00,276.6,
27-Sep-2021 15:00,258.3,
27-Sep-2021 16:00,227.5,
27-Sep-2021 17:00,209.8,
27-Sep-2021 18:00,211,
27-Sep-2021 19:00,205.7,
27-Sep-2021 20:00,199.5,
27-Sep-2021 21:00,195,
27-Sep-2021 22:00,174.2,
27-Sep-2021 23:00,137.2,
28-Sep-2021 00:00,125.8,
28-Sep-2021 01:00,71.4,
28-Sep-2021 02:00,64.1,
28-Sep-2021 03:00,36.4,
28-Sep-2021 04:00,27.9,
28-Sep-2021 05:00,51.5,
28-Sep-2021 06:00,38.9,
28-Sep-2021 07:00,75,
28-Sep-2021 08:00,71.7,
28-Sep-2021 09:00,74.3,
28-Sep-2021 10:00,69.6,
28-Sep-2021 11:00,50.7,
28-Sep-2021 12:00,60.8,
28-Sep-2021 13:00,55.5,
28-Sep-2021 14:00,74.7,
28-Sep-2021 15:00,77.8,
28-Sep-2021 16:00,78.8,
28-Sep-2021 17:00,55.9,
28-Sep-2021 18:00,53.3,
28-Sep-2021 19:00,132.4,
28-Sep-2021 20:00,42.2,
28-Sep-2021 21:00,25.7,
28-Sep-2021 22:00,37.1,
28-Sep-2021 23:00,7.3,
29-Sep-2021 00:00,6.8,
29-Sep-2021 01:00,4.2,
29-Sep-2021 02:00,4.1,
29-Sep-2021 03:00,4.9,
29-Sep-2021 04:00,4.9,
29-Sep-2021 05:00,4.5,
29-Sep-2021 06:00,5.4,
29-Sep-2021 07:00,10.4,
29-Sep-2021 08:00,11.5,
29-Sep-2021 09:00,5.8,
29-Sep-2021 10:00,5.7,
29-Sep-2021 11:00,4.3,
29-Sep-2021 12:00,2.3,
29-Sep-2021 13:00,2.2,
29-Sep-2021 14:00,1.7,
29-Sep-2021 15:00,6.6,
29-Sep-2021 16:00,2.4,
29-Sep-2021 17:00,3.4,
29-Sep-2021 18:00,4.2,
29-Sep-2021 19:00,4.2,
29-Sep-2021 20:00,5.1,
29-Sep-2021 21:00,3,
29-Sep-2021 22:00,4.6,
29-Sep-2021 23:00,6.3,
30-Sep-2021 00:00,9,
30-Sep-2021 01:00,5.8,
30-Sep-2021 02:00,5.2,
30-Sep-2021 03:00,2.7,
30-Sep-2021 04:00,5.6,
30-Sep-2021 05:00,5.5,
30-Sep-2021 06:00,7.7,
30-Sep-2021 07:00,14.6,
30-Sep-2021 08:00,5.7,
30-Sep-2021 09:00,7.5,
30-Sep-2021 10:00,2.3,
30-Sep-2021 11:00,3.7,
30-Sep-2021 12:00,1.9,
30-Sep-2021 13:00,0.8,
30-Sep-2021 14:00,2.9,
30-Sep-2021 15:00,3.1,
30-Sep-2021 16:00,2.8,
30-Sep-2021 17:00,7,
30-Sep-2021 18:00,6.5,
30-Sep-2021 19:00,7.3,
30-Sep-2021 20:00,6,
30-Sep-2021 21:00,3.5,
30-Sep-2021 22:00,4.9,
30-Sep-2021 23:00,6.9,
